Location: Bats
(43.6587°N, 0.4584°W)
Time: 20:03:39
(UTC+00:00)

Cosmos 2369 Rocket - Pass Details

Date: 12 January 2026
Orbit: 826 x 853 km, 71.0° (Epoch: 13 February)

Event Time Altitude Azimuth Distance (km) Brightness Sun altitude
Rises 17:22:04 0° 335° (NNW) 3,429 5.4 -6.5°
Reaches altitude 10° 17:24:32 10° 337° (NNW) 2,488 4.7 -6.9°
Maximum altitude 17:30:16 79° 65° (ENE) 870 2.2 -7.9°
Drops below altitude 10° 17:35:56 10° 152° (SSE) 2,461 4.6 -8.8°
Sets 17:38:22 0° 153° (SSE) 3,388 5.3 -9.2°
